Kosmos-2194

operational
NORAD ID: 21983 Int'l Des: 1992-030 Owner: VVSR Country: RU
LEOCIRCULAR

关于 Kosmos-2194

正在加载描述...

实时位置

正在加载3D地球...

即将过境

高度历史

Altitude vs Time

uPlot chart will show altitude changes over time

两行轨道根数

1 21983U 92030H 26061.64448559 .00000015 00000-0 20563-3 0 9992
2 21983 74.0012 115.8143 0015990 73.4774 46.6102 12.48474149538018
Epoch: Mar 2, 2026 • Age: 28 hours

当前状态

高度 1509.1 km
速度 7.10 km/s
星下点 -73.28°S, 175.14°W
发射日期 Jun 3, 1992
运行时间 33.7 years
类型 other

技术详情

分类 Payload
质量 60.00 kg
干质量 60.00 kg
总质量 60.00 kg
长度 0.80 m
直径 0.80 m
跨度 0.80 m
形状 Poly
制造商 NPOPM
平台类型 Strela-1 11F625
阶段状态 In Orbit
所有者/国家 VVSR/RU

大型星座

Loading constellations...